Find Starlink 11076

NORAD ID: 58709 Int'l Des: 2024-002 Owner: SPXS Country: US Constellation: starlink operational
LEOCIRCULAR

Live Position

Loading 3D Globe...

About Starlink 11076

Description loading...

Upcoming Passes

Passes for default location (London). Set your location on the main map for personalized predictions.

Altitude History

Loading altitude history...

Two-Line Element Set

1 58709U 24002E 26120.99217373 .00001429 00000-0 16653-4 0 9990
2 58709 53.1581 16.0690 0001029 69.4611 290.6518 15.69711129134657
Epoch: Apr 30, 2026 • Age: 25 hours

Current Status

Altitude 359.5 km
Velocity 7.70 km/s
Sub-Earth Point 12.53°N, 155.71°E
Launch Date Jan 3, 2024
Age 2.3 years
Type internet

Technical Details

Classification Payload
Mass 960.00 kg
Dry Mass 910.00 kg
Total Mass 960.00 kg
Length 0.30 m
Diameter 4.10 m
Span 29.00 m
Shape Box + pan
Manufacturer SPXS
Bus Type Starlink V2MD
Phase Status In Orbit
Owner/State SPXS/US

Most Searched